Starlink 30375

operational
NORAD ID: 57732 Int'l Des: 2023-131 Owner: SPXS Country: US Constellation: starlink
LEOCIRCULAR

About Starlink 30375

Description loading...

Live Position

Loading 3D Globe...

Upcoming Passes

Altitude History

Altitude vs Time

uPlot chart will show altitude changes over time

Two-Line Element Set

1 57732U 23131A 25258.07344502 -.00000194 00000-0 72434-6 0 9992
2 57732 43.0071 33.5437 0001435 266.9717 93.0961 15.02534722113663
Epoch: Sep 15, 2025 • Age: 14 hours

Current Status

Altitude 570.9 km
Velocity 7.58 km/s
Sub-Earth Point -41.68°S, 52.29°E
Launch Date Sep 1, 2023
Age 2 years
Type internet

Technical Details

Classification Payload
Mass 730.00 kg
Dry Mass 700.00 kg
Total Mass 730.00 kg
Length 0.30 m
Diameter 4.10 m
Span 29.00 m
Shape Box + pan
Manufacturer SPXS
Bus Type Starlink V2M
Phase Status In Orbit
Owner/State SPXS/US

Large Constellations

Loading constellations...